TimeMST,TemperatureF,Dew PointF,Humidity,Sea Level PressureIn,VisibilityMPH,Wind Direction,Wind SpeedMPH,Gust SpeedMPH,PrecipitationIn,Events,Conditions,WindDirDegrees,DateUTC
1:15 AM,35.6,15.8,44,30.09,10.0,SE,17.3,-,N/A,,Clear,140,2013-01-10 08:15:00
1:35 AM,37.4,15.8,41,30.09,10.0,SE,18.4,-,N/A,,Clear,140,2013-01-10 08:35:00
1:55 AM,37.4,14.0,38,30.08,10.0,SE,18.4,25.3,N/A,,Clear,130,2013-01-10 08:55:00
2:15 AM,37.4,14.0,38,30.08,10.0,SE,18.4,-,N/A,,Clear,130,2013-01-10 09:15:00
2:35 AM,37.4,14.0,38,30.08,10.0,SE,11.5,20.7,N/A,,Clear,130,2013-01-10 09:35:00
2:55 AM,37.4,14.0,38,30.08,10.0,SSE,8.1,-,N/A,,Clear,150,2013-01-10 09:55:00
3:15 AM,35.6,14.0,41,30.07,10.0,SSE,8.1,-,N/A,,Clear,160,2013-01-10 10:15:00
3:35 AM,37.4,14.0,38,30.05,10.0,SSE,11.5,-,N/A,,Clear,150,2013-01-10 10:35:00
3:55 AM,37.4,14.0,38,30.04,10.0,SSE,11.5,-,N/A,,Clear,150,2013-01-10 10:55:00
4:15 AM,37.4,14.0,38,30.04,10.0,SSE,11.5,-,N/A,,Clear,160,2013-01-10 11:15:00
4:35 AM,37.4,15.8,41,30.02,10.0,SSE,16.1,21.9,N/A,,Clear,160,2013-01-10 11:35:00
4:55 AM,35.6,15.8,44,30.01,10.0,SE,13.8,20.7,N/A,,Clear,140,2013-01-10 11:55:00
5:35 AM,35.6,15.8,44,29.98,10.0,SSE,20.7,25.3,N/A,,Clear,150,2013-01-10 12:35:00
5:55 AM,35.6,15.8,44,29.97,10.0,SSE,17.3,25.3,N/A,,Clear,160,2013-01-10 12:55:00
6:15 AM,37.4,15.8,41,29.97,10.0,SSE,21.9,25.3,N/A,,Clear,160,2013-01-10 13:15:00
6:35 AM,37.4,15.8,41,29.96,10.0,SSE,18.4,25.3,N/A,,Clear,160,2013-01-10 13:35:00
6:55 AM,35.6,15.8,44,29.97,10.0,SSE,18.4,26.5,N/A,,Clear,160,2013-01-10 13:55:00
7:35 AM,35.6,15.8,44,29.97,10.0,South,18.4,24.2,N/A,,Clear,170,2013-01-10 14:35:00
8:15 AM,37.4,15.8,41,29.98,10.0,SSW,16.1,23.0,N/A,,Clear,200,2013-01-10 15:15:00
8:55 AM,37.4,15.8,41,29.98,10.0,South,25.3,29.9,N/A,,Clear,190,2013-01-10 15:55:00
9:15 AM,37.4,15.8,41,29.97,10.0,South,18.4,-,N/A,,Clear,180,2013-01-10 16:15:00
9:35 AM,37.4,15.8,41,29.97,10.0,South,16.1,25.3,N/A,,Clear,190,2013-01-10 16:35:00
9:55 AM,37.4,15.8,41,29.97,10.0,South,17.3,25.3,N/A,,Clear,190,2013-01-10 16:55:00
10:15 AM,39.2,15.8,39,29.95,10.0,South,18.4,25.3,N/A,,Clear,190,2013-01-10 17:15:00
10:35 AM,41.0,17.6,39,29.93,10.0,South,19.6,27.6,N/A,,Clear,180,2013-01-10 17:35:00
10:55 AM,41.0,17.6,39,29.92,10.0,South,25.3,34.5,N/A,,Partly Cloudy,170,2013-01-10 17:55:00
11:15 AM,41.0,19.4,42,29.91,10.0,South,26.5,32.2,N/A,,Mostly Cloudy,180,2013-01-10 18:15:00
11:35 AM,41.0,19.4,42,29.91,10.0,South,19.6,31.1,N/A,,Mostly Cloudy,190,2013-01-10 18:35:00
11:55 AM,41.0,19.4,42,29.89,10.0,South,21.9,31.1,N/A,,Mostly Cloudy,180,2013-01-10 18:55:00
12:35 PM,39.2,19.4,45,29.87,10.0,South,26.5,33.4,N/A,,Mostly Cloudy,180,2013-01-10 19:35:00
12:55 PM,39.2,19.4,45,29.84,10.0,South,26.5,36.8,N/A,,Overcast,180,2013-01-10 19:55:00
1:15 PM,37.4,21.2,52,29.83,8.0,South,23.0,34.5,N/A,,Overcast,170,2013-01-10 20:15:00
1:35 PM,37.4,23.0,56,29.81,5.0,South,24.2,36.8,N/A,,Mostly Cloudy,180,2013-01-10 20:35:00
1:55 PM,37.4,19.4,48,29.81,10.0,South,24.2,35.7,N/A,,Scattered Clouds,180,2013-01-10 20:55:00
2:15 PM,37.4,19.4,48,29.81,10.0,South,24.2,38.0,N/A,,Clear,170,2013-01-10 21:15:00
2:35 PM,37.4,19.4,48,29.80,10.0,South,24.2,35.7,N/A,,Clear,190,2013-01-10 21:35:00
2:55 PM,37.4,19.4,48,29.80,10.0,South,28.8,36.8,N/A,,Clear,170,2013-01-10 21:55:00
3:15 PM,35.6,19.4,52,29.79,10.0,South,19.6,34.5,N/A,,Clear,170,2013-01-10 22:15:00
3:35 PM,35.6,17.6,48,29.78,10.0,South,19.6,38.0,N/A,,Clear,170,2013-01-10 22:35:00
3:55 PM,37.4,19.4,48,29.78,10.0,South,19.6,29.9,N/A,,Clear,180,2013-01-10 22:55:00
4:15 PM,35.6,17.6,48,29.77,10.0,South,28.8,34.5,N/A,,Clear,170,2013-01-10 23:15:00
4:35 PM,35.6,17.6,48,29.77,10.0,South,19.6,32.2,N/A,,Clear,180,2013-01-10 23:35:00
4:55 PM,35.6,17.6,48,29.77,10.0,South,23.0,32.2,N/A,,Clear,190,2013-01-10 23:55:00
5:15 PM,35.6,17.6,48,29.76,10.0,South,26.5,41.4,N/A,,Clear,180,2013-01-11 00:15:00
5:35 PM,33.8,19.4,56,29.77,10.0,South,18.4,33.4,N/A,,Clear,190,2013-01-11 00:35:00
5:55 PM,33.8,19.4,56,29.77,10.0,SSW,16.1,29.9,N/A,,Scattered Clouds,200,2013-01-11 00:55:00
6:15 PM,32.0,19.4,60,29.76,10.0,South,15.0,26.5,N/A,,Mostly Cloudy,190,2013-01-11 01:15:00
6:35 PM,32.0,19.4,60,29.75,10.0,South,25.3,32.2,N/A,,Mostly Cloudy,190,2013-01-11 01:35:00
6:55 PM,32.0,21.2,64,29.73,10.0,South,18.4,28.8,N/A,,Mostly Cloudy,190,2013-01-11 01:55:00
7:15 PM,32.0,21.2,64,29.73,10.0,South,21.9,31.1,N/A,,Overcast,190,2013-01-11 02:15:00
7:35 PM,32.0,23.0,69,29.73,10.0,South,17.3,29.9,N/A,,Overcast,190,2013-01-11 02:35:00
7:55 PM,32.0,23.0,69,29.72,10.0,South,26.5,39.1,N/A,,Overcast,180,2013-01-11 02:55:00
8:15 PM,30.2,23.0,75,29.72,10.0,SSW,19.6,27.6,N/A,,Mostly Cloudy,200,2013-01-11 03:15:00
8:35 PM,30.2,23.0,75,29.73,10.0,SSW,23.0,31.1,N/A,,Mostly Cloudy,210,2013-01-11 03:35:00
8:55 PM,30.2,23.0,75,29.72,5.0,SW,27.6,35.7,N/A,,Mostly Cloudy,220,2013-01-11 03:55:00
9:15 PM,28.4,24.8,86,29.73,4.0,SW,15.0,31.1,N/A,,Overcast,230,2013-01-11 04:15:00
9:35 PM,28.4,23.0,80,29.74,7.0,SW,15.0,25.3,N/A,,Mostly Cloudy,230,2013-01-11 04:35:00
9:55 PM,24.8,23.0,93,29.75,5.0,West,17.3,25.3,N/A,,Overcast,260,2013-01-11 04:55:00
10:15 PM,24.8,21.2,86,29.76,2.5,WSW,18.4,25.3,N/A,,Overcast,250,2013-01-11 05:15:00
10:55 PM,21.2,15.8,80,29.76,5.0,SW,15.0,21.9,N/A,,Overcast,230,2013-01-11 05:55:00
11:15 PM,21.2,14.0,74,29.75,10.0,SW,11.5,-,N/A,,Overcast,230,2013-01-11 06:15:00
11:35 PM,21.2,12.2,68,29.76,10.0,WSW,13.8,20.7,N/A,,Overcast,250,2013-01-11 06:35:00
11:55 PM,21.2,12.2,68,29.76,10.0,WSW,18.4,24.2,N/A,,Overcast,250,2013-01-11 06:55:00